When you browse on this site, cookies collect data to enhance your experience and personalize the content and advertising you see.
Visit our Privacy Policy to learn more. By continuing to use the site, you agree to this use of cookies and data.
  • In Schweiz
  • Länderverzeichnis
  • Für 7 Tage
  • Wassertemperatur
  • Wetterkarte
  • Widgets
  • user-avatar
    Anmelden

    Stündliche Wetter Eisenstadt

    Heute, 19 Oktober, Samstag

    Zeit Temperatur Niederschläge Wind Luftdruck Luftfeuchtigkeit
    00:00 +11°C° 0 mm 0 m/S 721 mmHg 89%
    01:00 +10°C° 0 mm 0 m/S 721 mmHg 89%
    02:00 +10°C° 0 mm 0 m/S 721 mmHg 90%
    03:00 +10°C° 0 mm 0 m/S 721 mmHg 91%
    04:00 +10°C° 0 mm 0 m/S 721 mmHg 91%
    05:00 +10°C° 0 mm 0 m/S 721 mmHg 92%
    06:00 +11°C° 0 mm 1 m/S 721 mmHg 93%
    07:00 +11°C° 0 mm 1 m/S 721 mmHg 94%
    08:00 +12°C° 0 mm 2 m/S 720 mmHg 87%
    09:00 +14°C° 0 mm 2 m/S 720 mmHg 80%
    10:00 +16°C° 0 mm 3 m/S 720 mmHg 73%
    11:00 +17°C° 0 mm 4 m/S 720 mmHg 68%
    12:00 +18°C° 0 mm 4 m/S 720 mmHg 63%
    13:00 +19°C° 0 mm 5 m/S 720 mmHg 58%
    14:00 +19°C° 0 mm 4 m/S 720 mmHg 61%
    15:00 +19°C° 0 mm 4 m/S 720 mmHg 63%
    16:00 +18°C° 0 mm 3 m/S 719 mmHg 65%
    17:00 +17°C° 0 mm 3 m/S 720 mmHg 71%
    18:00 +15°C° 0 mm 2 m/S 720 mmHg 77%
    19:00 +14°C° 0 mm 2 m/S 720 mmHg 84%
    20:00 +13°C° 0 mm 2 m/S 720 mmHg 85%
    21:00 +13°C° 0 mm 2 m/S 720 mmHg 87%
    22:00 +13°C° 0 mm 1 m/S 720 mmHg 89%
    23:00 +12°C° 0 mm 1 m/S 720 mmHg 90%

    Morgen, 20 Oktober, Sonntag

    Zeit Temperatur Niederschläge Wind Luftdruck Luftfeuchtigkeit
    00:00 +12°C° 0 mm 1 m/S 720 mmHg 90%
    01:00 +12°C° 0 mm 1 m/S 721 mmHg 91%
    02:00 +11°C° 0 mm 1 m/S 720 mmHg 91%
    03:00 +11°C° 0 mm 1 m/S 720 mmHg 91%
    04:00 +11°C° 0 mm 1 m/S 720 mmHg 92%
    05:00 +11°C° 0 mm 1 m/S 720 mmHg 92%
    06:00 +11°C° 0 mm 1 m/S 720 mmHg 92%
    07:00 +11°C° 0 mm 1 m/S 720 mmHg 91%
    08:00 +13°C° 0 mm 2 m/S 721 mmHg 84%
    09:00 +14°C° 0 mm 3 m/S 721 mmHg 76%
    10:00 +17°C° 0 mm 3 m/S 721 mmHg 69%
    11:00 +18°C° 0 mm 4 m/S 721 mmHg 65%
    12:00 +19°C° 0 mm 5 m/S 721 mmHg 62%
    13:00 +21°C° 0 mm 6 m/S 721 mmHg 58%
    14:00 +20°C° 0 mm 5 m/S 721 mmHg 60%
    15:00 +20°C° 0 mm 5 m/S 720 mmHg 62%
    16:00 +19°C° 0 mm 5 m/S 720 mmHg 63%
    17:00 +17°C° 0 mm 5 m/S 720 mmHg 68%
    18:00 +16°C° 0 mm 5 m/S 720 mmHg 73%
    19:00 +15°C° 0 mm 4 m/S 720 mmHg 78%
    20:00 +14°C° 0 mm 4 m/S 720 mmHg 80%
    21:00 +14°C° 0 mm 3 m/S 720 mmHg 82%
    22:00 +13°C° 0 mm 3 m/S 721 mmHg 84%
    23:00 +13°C° 0 mm 3 m/S 721 mmHg 85%

    übermorgen, 21 Oktober, Montag

    Zeit Temperatur Niederschläge Wind Luftdruck Luftfeuchtigkeit
    00:00 +13°C° 0 mm 2 m/S 721 mmHg 85%
    01:00 +13°C° 0 mm 2 m/S 720 mmHg 86%
    02:00 +13°C° 0 mm 2 m/S 721 mmHg 85%
    03:00 +12°C° 0 mm 2 m/S 721 mmHg 84%
    04:00 +12°C° 0 mm 2 m/S 721 mmHg 84%
    05:00 +12°C° 0 mm 1 m/S 721 mmHg 83%
    06:00 +12°C° 0 mm 1 m/S 721 mmHg 82%
    07:00 +12°C° 0 mm 1 m/S 721 mmHg 80%
    08:00 +15°C° 0 mm 1 m/S 722 mmHg 74%
    09:00 +18°C° 0 mm 1 m/S 722 mmHg 67%
    10:00 +20°C° 0 mm 1 m/S 723 mmHg 60%
    11:00 +20°C° 0 mm 2 m/S 723 mmHg 59%
    12:00 +21°C° 0 mm 2 m/S 723 mmHg 57%
    13:00 +23°C° 0 mm 2 m/S 723 mmHg 55%
    14:00 +21°C° 0 mm 2 m/S 723 mmHg 60%
    15:00 +21°C° 0 mm 1 m/S 723 mmHg 65%
    16:00 +21°C° 0 mm 1 m/S 723 mmHg 70%
    17:00 +19°C° 0 mm 1 m/S 723 mmHg 74%
    18:00 +18°C° 0 mm 1 m/S 723 mmHg 79%
    19:00 +15°C° 0 mm 1 m/S 723 mmHg 83%
    20:00 +15°C° 0 mm 1 m/S 724 mmHg 84%
    21:00 +15°C° 0 mm 1 m/S 724 mmHg 85%
    22:00 +14°C° 0 mm 1 m/S 724 mmHg 86%
    23:00 +14°C° 0 mm 1 m/S 724 mmHg 87%

    22 Oktober, Dienstag

    Zeit Temperatur Niederschläge Wind Luftdruck Luftfeuchtigkeit
    00:00 +14°C° 0 mm 1 m/S 724 mmHg 88%
    01:00 +13°C° 0 mm 1 m/S 724 mmHg 88%
    02:00 +13°C° 0 mm 1 m/S 725 mmHg 89%
    03:00 +13°C° 0 mm 1 m/S 725 mmHg 89%
    04:00 +13°C° 0 mm 1 m/S 725 mmHg 90%
    05:00 +13°C° 0 mm 1 m/S 725 mmHg 89%
    06:00 +13°C° 0 mm 1 m/S 726 mmHg 89%
    07:00 +13°C° 0 mm 1 m/S 726 mmHg 89%
    08:00 +15°C° 0 mm 1 m/S 726 mmHg 81%
    09:00 +18°C° 0 mm 1 m/S 726 mmHg 73%
    10:00 +20°C° 0 mm 1 m/S 727 mmHg 66%
    11:00 +20°C° 0 mm 1 m/S 727 mmHg 64%
    12:00 +21°C° 0 mm 1 m/S 727 mmHg 62%
    13:00 +22°C° 0 mm 1 m/S 727 mmHg 60%
    14:00 +21°C° 0 mm 1 m/S 726 mmHg 63%
    15:00 +20°C° 0 mm 1 m/S 726 mmHg 66%
    16:00 +20°C° 0 mm 1 m/S 726 mmHg 69%
    17:00 +19°C° 0 mm 1 m/S 726 mmHg 74%
    18:00 +16°C° 0 mm 1 m/S 726 mmHg 79%
    19:00 +14°C° 0 mm 0 m/S 726 mmHg 83%
    20:00 +14°C° 0 mm 0 m/S 726 mmHg 85%
    21:00 +13°C° 0 mm 0 m/S 726 mmHg 87%
    22:00 +13°C° 0 mm 0 m/S 726 mmHg 89%
    23:00 +13°C° 0 mm 1 m/S 726 mmHg 90%

    23 Oktober, Mittwoch

    Zeit Temperatur Niederschläge Wind Luftdruck Luftfeuchtigkeit
    00:00 +13°C° 0 mm 1 m/S 726 mmHg 91%
    01:00 +13°C° 0 mm 1 m/S 725 mmHg 91%
    02:00 +13°C° 0 mm 1 m/S 725 mmHg 92%
    03:00 +13°C° 0 mm 1 m/S 725 mmHg 92%
    04:00 +13°C° 0 mm 2 m/S 725 mmHg 92%
    05:00 +13°C° 0 mm 2 m/S 725 mmHg 92%
    06:00 +13°C° 0 mm 2 m/S 725 mmHg 92%
    07:00 +13°C° 0 mm 2 m/S 725 mmHg 93%
    08:00 +15°C° 0 mm 2 m/S 725 mmHg 84%
    09:00 +17°C° 0 mm 2 m/S 725 mmHg 76%
    10:00 +19°C° 0 mm 3 m/S 725 mmHg 68%
    11:00 +19°C° 0 mm 3 m/S 725 mmHg 64%
    12:00 +20°C° 0 mm 3 m/S 725 mmHg 60%
    13:00 +21°C° 0 mm 3 m/S 724 mmHg 56%
    14:00 +20°C° 0 mm 3 m/S 724 mmHg 60%
    15:00 +20°C° 0 mm 3 m/S 724 mmHg 63%
    16:00 +19°C° 0 mm 3 m/S 723 mmHg 66%
    17:00 +18°C° 0 mm 3 m/S 723 mmHg 71%
    18:00 +17°C° 0 mm 2 m/S 723 mmHg 76%
    19:00 +15°C° 0 mm 2 m/S 723 mmHg 80%
    20:00 +15°C° 0 mm 2 m/S 723 mmHg 82%
    21:00 +15°C° 0 mm 2 m/S 723 mmHg 84%
    22:00 +14°C° 0 mm 2 m/S 723 mmHg 86%
    23:00 +14°C° 0 mm 2 m/S 723 mmHg 88%

    24 Oktober, Donnerstag

    Zeit Temperatur Niederschläge Wind Luftdruck Luftfeuchtigkeit
    00:00 +13°C° 0 mm 2 m/S 723 mmHg 89%
    01:00 +12°C° 0 mm 3 m/S 722 mmHg 91%
    02:00 +12°C° 0 mm 3 m/S 722 mmHg 91%
    03:00 +13°C° 0 mm 2 m/S 722 mmHg 92%
    04:00 +12°C° 0 mm 2 m/S 722 mmHg 92%
    05:00 +12°C° 0 mm 2 m/S 722 mmHg 92%
    06:00 +12°C° 0 mm 2 m/S 722 mmHg 92%
    07:00 +12°C° 0 mm 2 m/S 722 mmHg 92%
    08:00 +14°C° 0 mm 2 m/S 722 mmHg 83%
    09:00 +16°C° 0 mm 2 m/S 722 mmHg 74%
    10:00 +18°C° 0 mm 2 m/S 723 mmHg 66%
    11:00 +19°C° 0 mm 2 m/S 723 mmHg 61%
    12:00 +20°C° 0 mm 2 m/S 723 mmHg 57%
    13:00 +21°C° 0 mm 2 m/S 723 mmHg 52%
    14:00 +20°C° 0 mm 2 m/S 723 mmHg 56%
    15:00 +20°C° 0 mm 1 m/S 722 mmHg 60%
    16:00 +19°C° 0 mm 1 m/S 722 mmHg 65%
    17:00 +18°C° 0 mm 1 m/S 722 mmHg 69%
    18:00 +16°C° 0 mm 1 m/S 722 mmHg 73%
    19:00 +15°C° 0 mm 1 m/S 723 mmHg 77%
    20:00 +14°C° 0 mm 1 m/S 723 mmHg 78%
    21:00 +14°C° 0 mm 1 m/S 723 mmHg 78%
    22:00 +14°C° 0 mm 1 m/S 723 mmHg 78%
    23:00 +13°C° 0 mm 1 m/S 723 mmHg 79%
    Mehr zeigen